| time (UTC) | temp F | wind direction | speed knots | gust knots | rain 1hr in | rain 24hr in | rain mn in | humidity % | barometer mb |
| 20260506002805 | 51 | 348 | 0.0 | 0.0 | 0.00 | 0.00 | 0.00 | 58 | 1012.3 |
| 20260506002306 | 51 | 9 | 0.0 | 0.0 | 0.00 | 0.00 | 0.00 | 56 | 1012.2 |
| 20260506001805 | 51 | 356 | 0.0 | 0.0 | 0.00 | 0.00 | 0.00 | 56 | 1012.2 |
| 20260506001304 | 51 | 68 | 0.0 | 0.9 | 0.00 | 0.00 | 0.00 | 58 | 1012.5 |
| 20260506000805 | 50 | 81 | 0.0 | 0.9 | 0.00 | 0.00 | 0.00 | 60 | 1012.5 |
| 20260506000305 | 50 | 72 | 0.0 | 0.9 | 0.00 | 0.00 | 0.00 | 62 | 1012.6 |
| 20260505235305 | 50 | 36 | 0.9 | 1.7 | 0.00 | 0.00 | 0.00 | 64 | 1012.6 |
| 20260505234805 | 50 | 204 | 0.0 | 0.0 | 0.00 | 0.00 | 0.00 | 59 | 1012.9 |
| 20260505234304 | 50 | 203 | 0.0 | 0.0 | 0.00 | 0.00 | 0.00 | 59 | 1012.7 |
| 20260505232805 | 52 | 60 | 0.0 | 0.0 | 0.00 | 0.00 | 0.00 | 54 | 1012.7 |
| 20260505232305 | 52 | 45 | 0.0 | 0.0 | 0.00 | 0.00 | 0.00 | 53 | 1012.8 |
| 20260505231804 | 52 | 358 | 0.0 | 0.9 | 0.00 | 0.00 | 0.00 | 53 | 1012.8 |
| 20260505231304 | 52 | 40 | 0.0 | 0.9 | 0.00 | 0.00 | 0.00 | 54 | 1012.8 |
| 20260505230804 | 52 | 40 | 0.0 | 0.9 | 0.00 | 0.00 | 0.00 | 54 | 1012.7 |
| 20260505230305 | 52 | 51 | 0.0 | 0.9 | 0.00 | 0.00 | 0.00 | 55 | 1012.4 |
| 20260505225804 | 52 | 40 | 0.9 | 0.9 | 0.00 | 0.00 | 0.00 | 54 | 1012.4 |
| 20260505225306 | 52 | 43 | 0.0 | 0.9 | 0.00 | 0.00 | 0.00 | 55 | 1012.6 |
| 20260505224805 | 52 | 60 | 0.0 | 0.9 | 0.00 | 0.00 | 0.00 | 55 | 1012.7 |
| 20260505224304 | 52 | 66 | 0.9 | 1.7 | 0.00 | 0.00 | 0.00 | 55 | 1012.7 |
| 20260505223804 | 52 | 49 | 0.0 | 1.7 | 0.00 | 0.00 | 0.00 | 55 | 1012.7 |
| 20260505223305 | 51 | 42 | 0.0 | 0.0 | 0.00 | 0.00 | 0.00 | 55 | 1012.5 |
| 20260505222306 | 51 | 90 | 0.0 | 0.0 | 0.00 | 0.00 | 0.00 | 57 | 1013.0 |
| 20260505221804 | 51 | 91 | 0.0 | 0.0 | 0.00 | 0.00 | 0.00 | 57 | 1012.9 |
| 20260505221304 | 51 | 357 | 0.0 | 0.0 | 0.00 | 0.00 | 0.00 | 57 | 1012.8 |
| 20260505220804 | 51 | 322 | 0.0 | 0.9 | 0.00 | 0.00 | 0.00 | 56 | 1012.7 |
| 20260505220305 | 50 | 322 | 0.0 | 0.9 | 0.00 | 0.00 | 0.00 | 56 | 1012.7 |
| 20260505215805 | 51 | 275 | 0.0 | 0.0 | 0.00 | 0.00 | 0.00 | 57 | 1012.8 |
| 20260505215305 | 51 | 272 | 0.0 | 0.9 | 0.00 | 0.00 | 0.00 | 56 | 1012.8 |
| 20260505214805 | 51 | 294 | 0.9 | 2.6 | 0.00 | 0.00 | 0.00 | 55 | 1012.7 |
| 20260505214304 | 51 | 344 | 0.0 | 0.9 | 0.00 | 0.00 | 0.00 | 55 | 1012.7 |
| 20260505212804 | 52 | 331 | 0.9 | 1.7 | 0.00 | 0.00 | 0.00 | 53 | 1012.6 |
| 20260505212305 | 53 | 333 | 0.9 | 1.7 | 0.00 | 0.00 | 0.00 | 53 | 1012.5 |
| 20260505211805 | 53 | 355 | 1.7 | 2.6 | 0.00 | 0.00 | 0.00 | 52 | 1012.3 |
| 20260505211305 | 53 | 338 | 1.7 | 2.6 | 0.00 | 0.00 | 0.00 | 52 | 1012.7 |
| 20260505210804 | 53 | 319 | 0.9 | 1.7 | 0.00 | 0.00 | 0.00 | 52 | 1012.4 |
| 20260505210305 | 53 | 317 | 1.7 | 2.6 | 0.00 | 0.00 | 0.00 | 51 | 1012.5 |
| 20260505205804 | 53 | 318 | 1.7 | 2.6 | 0.00 | 0.00 | 0.00 | 51 | 1012.5 |
| 20260505205305 | 53 | 328 | 0.9 | 1.7 | 0.00 | 0.00 | 0.00 | 50 | 1012.5 |
| 20260505204804 | 54 | 334 | 0.9 | 1.7 | 0.00 | 0.00 | 0.00 | 49 | 1012.6 |
| 20260505204304 | 54 | 2 | 0.9 | 1.7 | 0.00 | 0.00 | 0.00 | 48 | 1012.6 |
| 20260505203805 | 54 | 29 | 0.0 | 1.7 | 0.00 | 0.00 | 0.00 | 48 | 1012.6 |
| 20260505203304 | 54 | 9 | 0.9 | 1.7 | 0.00 | 0.00 | 0.00 | 47 | 1012.6 |
| 20260505202805 | 54 | 19 | 0.9 | 1.7 | 0.00 | 0.00 | 0.00 | 47 | 1012.7 |
| 20260505202306 | 55 | 11 | 0.9 | 2.6 | 0.00 | 0.00 | 0.00 | 46 | 1012.6 |
| 20260505201804 | 54 | 5 | 1.7 | 1.7 | 0.00 | 0.00 | 0.00 | 46 | 1012.4 |
| 20260505200805 | 54 | 329 | 0.9 | 2.6 | 0.00 | 0.00 | 0.00 | 50 | 1012.4 |
| 20260505200304 | 54 | 322 | 1.7 | 2.6 | 0.00 | 0.00 | 0.00 | 50 | 1012.6 |
| 20260505195804 | 54 | 330 | 1.7 | 2.6 | 0.00 | 0.00 | 0.00 | 50 | 1012.4 |
| 20260505194805 | 55 | 322 | 0.9 | 1.7 | 0.00 | 0.00 | 0.00 | 50 | 1012.1 |
| 20260505194304 | 55 | 310 | 0.9 | 0.9 | 0.00 | 0.00 | 0.00 | 49 | 1012.1 |
| 20260505193304 | 56 | 300 | 0.0 | 0.9 | 0.00 | 0.00 | 0.00 | 49 | 1011.8 |
| 20260505192804 | 56 | 320 | 0.9 | 0.9 | 0.00 | 0.00 | 0.00 | 49 | 1012.0 |
| 20260505192305 | 56 | 317 | 0.9 | 1.7 | 0.00 | 0.00 | 0.00 | 48 | 1011.8 |
| 20260505191805 | 57 | 308 | 0.9 | 1.7 | 0.00 | 0.00 | 0.00 | 46 | 1011.7 |
| 20260505191304 | 57 | 285 | 0.9 | 4.3 | 0.00 | 0.00 | 0.00 | 46 | 1011.8 |
| 20260505190805 | 57 | 324 | 0.9 | 2.6 | 0.00 | 0.00 | 0.00 | 47 | 1011.6 |
| 20260505190304 | 58 | 318 | 0.9 | 1.7 | 0.00 | 0.00 | 0.00 | 47 | 1011.7 |
| 20260505185805 | 58 | 315 | 0.9 | 1.7 | 0.00 | 0.00 | 0.00 | 46 | 1011.6 |
| 20260505185305 | 58 | 288 | 0.9 | 2.6 | 0.00 | 0.00 | 0.00 | 45 | 1011.7 |
| 20260505184804 | 59 | 310 | 0.9 | 2.6 | 0.00 | 0.00 | 0.00 | 44 | 1011.4 |
| 20260505183804 | 60 | 300 | 2.6 | 6.1 | 0.00 | 0.00 | 0.00 | 41 | 1011.4 |
| 20260505183305 | 61 | 284 | 2.6 | 7.8 | 0.00 | 0.00 | 0.00 | 40 | 1011.6 |
| 20260505182804 | 61 | 266 | 4.3 | 7.0 | 0.00 | 0.00 | 0.00 | 39 | 1011.5 |
| 20260505181304 | 62 | 343 | 0.9 | 2.6 | 0.00 | 0.00 | 0.00 | 38 | 1011.2 |
| 20260505180304 | 63 | 252 | 2.6 | 6.1 | 0.00 | 0.00 | 0.00 | 36 | 1011.0 |
| 20260505175804 | 64 | 275 | 2.6 | 10.4 | 0.00 | 0.00 | 0.00 | 36 | 1011.1 |
| 20260505175305 | 64 | 273 | 3.5 | 7.0 | 0.00 | 0.00 | 0.00 | 36 | 1010.8 |
| 20260505174804 | 64 | 304 | 3.5 | 8.7 | 0.00 | 0.00 | 0.00 | 34 | 1010.8 |
| 20260505173804 | 64 | 273 | 5.2 | 8.7 | 0.00 | 0.00 | 0.00 | 34 | 1010.8 |
| 20260505173304 | 66 | 273 | 5.2 | 10.4 | 0.00 | 0.00 | 0.00 | 33 | 1010.4 |
| 20260505172804 | 66 | 264 | 4.3 | 7.8 | 0.00 | 0.00 | 0.00 | 33 | 1010.7 |
| 20260505172306 | 65 | 285 | 1.7 | 5.2 | 0.00 | 0.00 | 0.00 | 34 | 1010.8 |
| 20260505171804 | 63 | 257 | 1.7 | 5.2 | 0.00 | 0.00 | 0.00 | 35 | 1010.8 |
| 20260505171304 | 64 | 267 | 2.6 | 8.7 | 0.00 | 0.00 | 0.00 | 34 | 1010.9 |
| 20260505170805 | 64 | 263 | 4.3 | 10.4 | 0.00 | 0.00 | 0.00 | 34 | 1010.9 |
| 20260505170305 | 65 | 272 | 4.3 | 7.8 | 0.00 | 0.00 | 0.00 | 34 | 1011.0 |
| 20260505165804 | 65 | 272 | 5.2 | 10.4 | 0.00 | 0.00 | 0.00 | 32 | 1010.6 |
| 20260505165306 | 67 | 264 | 4.3 | 8.7 | 0.00 | 0.00 | 0.00 | 31 | 1010.5 |
| 20260505164804 | 67 | 308 | 3.5 | 8.7 | 0.00 | 0.00 | 0.00 | 32 | 1010.7 |
| 20260505164305 | 67 | 263 | 1.7 | 8.7 | 0.00 | 0.00 | 0.00 | 32 | 1010.6 |
| 20260505163805 | 67 | 271 | 4.3 | 7.8 | 0.00 | 0.00 | 0.00 | 33 | 1010.7 |
| 20260505163304 | 68 | 231 | 4.3 | 10.4 | 0.00 | 0.00 | 0.00 | 32 | 1010.4 |
| 20260505162804 | 67 | 305 | 1.7 | 6.1 | 0.00 | 0.00 | 0.00 | 33 | 1010.6 |
| 20260505162306 | 66 | 265 | 4.3 | 8.7 | 0.00 | 0.00 | 0.00 | 34 | 1010.8 |
| 20260505161305 | 65 | 242 | 3.5 | 7.8 | 0.00 | 0.00 | 0.00 | 34 | 1010.9 |
| 20260505160805 | 65 | 278 | 1.7 | 8.7 | 0.00 | 0.00 | 0.00 | 34 | 1010.8 |
| 20260505152805 | 66 | 252 | 3.5 | 7.0 | 0.00 | 0.00 | 0.00 | 35 | 1010.9 |
| 20260505152305 | 63 | 276 | 2.6 | 6.1 | 0.00 | 0.00 | 0.00 | 38 | 1011.1 |
| 20260505151805 | 63 | 264 | 4.3 | 10.4 | 0.00 | 0.00 | 0.00 | 37 | 1011.1 |
| 20260505150805 | 65 | 267 | 4.3 | 10.4 | 0.00 | 0.00 | 0.00 | 36 | 1010.9 |
| 20260505150304 | 65 | 244 | 2.6 | 7.0 | 0.00 | 0.00 | 0.00 | 37 | 1010.9 |
| 20260505140304 | 64 | 274 | 4.3 | 8.7 | 0.00 | 0.00 | 0.00 | 39 | 1011.7 |
| 20260505124804 | 63 | 285 | 5.2 | 10.4 | 0.00 | 0.00 | 0.00 | 39 | 1012.3 |
| 20260505123804 | 62 | 275 | 4.3 | 10.4 | 0.00 | 0.00 | 0.00 | 43 | 1012.4 |
| 20260505123305 | 63 | 300 | 5.2 | 10.4 | 0.00 | 0.00 | 0.00 | 42 | 1012.3 |
| 20260505122305 | 65 | 226 | 5.2 | 10.4 | 0.00 | 0.00 | 0.00 | 39 | 1012.2 |
| 20260505121804 | 64 | 226 | 6.1 | 11.3 | 0.00 | 0.00 | 0.00 | 41 | 1012.3 |
| 20260505121304 | 63 | 295 | 5.2 | 12.2 | 0.00 | 0.00 | 0.00 | 41 | 1012.7 |
| 20260505120804 | 64 | 284 | 5.2 | 11.3 | 0.00 | 0.00 | 0.00 | 40 | 1012.6 |
| 20260505120304 | 63 | 251 | 5.2 | 11.3 | 0.00 | 0.00 | 0.00 | 43 | 1012.7 |
| 20260505115305 | 64 | 229 | 7.0 | 14.8 | 0.00 | 0.00 | 0.00 | 42 | 1012.5 |
| 20260505114804 | 63 | 227 | 3.5 | 10.4 | 0.00 | 0.00 | 0.00 | 44 | 1012.6 |
| 20260505114304 | 63 | 245 | 6.1 | 13.0 | 0.00 | 0.00 | 0.00 | 46 | 1012.8 |
| 20260505113804 | 63 | 240 | 7.8 | 13.0 | 0.00 | 0.00 | 0.00 | 44 | 1012.8 |
| 20260505112804 | 62 | 220 | 4.3 | 8.7 | 0.00 | 0.00 | 0.00 | 42 | 1013.3 |
| 20260505112305 | 62 | 269 | 4.3 | 11.3 | 0.00 | 0.00 | 0.00 | 44 | 1013.1 |
| 20260505111805 | 60 | 270 | 3.5 | 8.7 | 0.00 | 0.00 | 0.00 | 46 | 1013.4 |
| 20260505111305 | 60 | 251 | 7.0 | 11.3 | 0.00 | 0.00 | 0.00 | 46 | 1013.1 |
| 20260505110804 | 61 | 226 | 4.3 | 11.3 | 0.00 | 0.00 | 0.00 | 42 | 1013.2 |
| 20260505110304 | 63 | 273 | 4.3 | 8.7 | 0.00 | 0.00 | 0.00 | 43 | 1013.0 |
| 20260505101804 | 60 | 249 | 5.2 | 11.3 | 0.00 | 0.00 | 0.00 | 44 | 1013.3 |
| 20260505101304 | 60 | 262 | 5.2 | 12.2 | 0.00 | 0.00 | 0.00 | 44 | 1013.3 |
| 20260505100804 | 62 | 260 | 4.3 | 12.2 | 0.00 | 0.00 | 0.00 | 44 | 1013.0 |
| 20260505100304 | 62 | 279 | 5.2 | 13.9 | 0.00 | 0.00 | 0.00 | 43 | 1013.1 |
| 20260505095804 | 61 | 273 | 4.3 | 12.2 | 0.00 | 0.00 | 0.00 | 42 | 1013.3 |
| 20260505095305 | 60 | 269 | 4.3 | 12.2 | 0.00 | 0.00 | 0.00 | 46 | 1013.3 |
| 20260505094305 | 61 | 243 | 5.2 | 13.0 | 0.00 | 0.00 | 0.00 | 47 | 1013.0 |
| 20260505093805 | 60 | 243 | 6.1 | 13.0 | 0.00 | 0.00 | 0.00 | 47 | 1013.4 |
| 20260505093304 | 59 | 275 | 5.2 | 10.4 | 0.00 | 0.00 | 0.00 | 47 | 1013.3 |
| 20260505092804 | 61 | 252 | 5.2 | 13.9 | 0.00 | 0.00 | 0.00 | 42 | 1013.1 |
| 20260505092305 | 61 | 242 | 1.7 | 7.0 | 0.00 | 0.00 | 0.00 | 50 | 1013.1 |
| 20260505091804 | 61 | 251 | 2.6 | 8.7 | 0.00 | 0.00 | 0.00 | 50 | 1013.2 |
| 20260505091304 | 61 | 232 | 2.6 | 7.0 | 0.00 | 0.00 | 0.00 | 50 | 1013.1 |
| 20260505090805 | 61 | 208 | 1.7 | 6.1 | 0.00 | 0.00 | 0.00 | 51 | 1013.0 |
| 20260505090304 | 61 | 246 | 0.9 | 4.3 | 0.00 | 0.00 | 0.00 | 53 | 1013.2 |
| 20260505085805 | 59 | 234 | 0.9 | 5.2 | 0.00 | 0.00 | 0.00 | 55 | 1013.3 |
| 20260505085305 | 59 | 279 | 1.7 | 6.1 | 0.00 | 0.00 | 0.00 | 57 | 1013.3 |
| 20260505084805 | 58 | 287 | 1.7 | 4.3 | 0.00 | 0.00 | 0.00 | 60 | 1013.4 |
| 20260505084305 | 57 | 221 | 2.6 | 6.1 | 0.00 | 0.00 | 0.00 | 62 | 1013.4 |
| 20260505083805 | 57 | 236 | 2.6 | 5.2 | 0.00 | 0.00 | 0.00 | 60 | 1013.3 |
| 20260505083304 | 57 | 233 | 2.6 | 7.0 | 0.00 | 0.00 | 0.00 | 59 | 1013.2 |
| 20260505082804 | 57 | 254 | 1.7 | 5.2 | 0.00 | 0.00 | 0.00 | 62 | 1013.2 |
| 20260505082305 | 57 | 237 | 4.3 | 7.0 | 0.00 | 0.00 | 0.00 | 62 | 1013.3 |
| 20260505081304 | 57 | 258 | 1.7 | 6.1 | 0.00 | 0.00 | 0.00 | 62 | 1013.6 |
| 20260505080804 | 56 | 246 | 1.7 | 4.3 | 0.00 | 0.00 | 0.00 | 67 | 1013.5 |
| 20260505080304 | 56 | 228 | 1.7 | 6.1 | 0.00 | 0.00 | 0.00 | 66 | 1013.6 |
| 20260505075804 | 56 | 260 | 0.9 | 2.6 | 0.00 | 0.00 | 0.00 | 64 | 1013.6 |
| 20260505075304 | 56 | 231 | 0.9 | 4.3 | 0.00 | 0.00 | 0.00 | 65 | 1013.2 |
| 20260505074804 | 55 | 229 | 0.9 | 1.7 | 0.00 | 0.00 | 0.00 | 64 | 1013.5 |
| 20260505074305 | 55 | 267 | 0.9 | 2.6 | 0.00 | 0.00 | 0.00 | 67 | 1013.4 |
| 20260505073804 | 54 | 227 | 2.6 | 4.3 | 0.00 | 0.00 | 0.00 | 67 | 1013.4 |
| 20260505073304 | 54 | 229 | 0.9 | 2.6 | 0.00 | 0.00 | 0.00 | 66 | 1013.4 |
| 20260505072804 | 54 | 16 | 0.9 | 0.9 | 0.00 | 0.00 | 0.00 | 67 | 1013.3 |
| 20260505071804 | 52 | 248 | 0.9 | 2.6 | 0.00 | 0.00 | 0.00 | 71 | 1013.6 |
| 20260505071305 | 52 | 276 | 0.9 | 2.6 | 0.00 | 0.00 | 0.00 | 72 | 1013.4 |
| 20260505070805 | 52 | 248 | 0.9 | 2.6 | 0.00 | 0.00 | 0.00 | 72 | 1013.4 |
| 20260505070304 | 52 | 259 | 0.9 | 2.6 | 0.00 | 0.00 | 0.00 | 74 | 1013.5 |
| 20260505065805 | 52 | 216 | 1.7 | 2.6 | 0.00 | 0.00 | 0.00 | 73 | 1013.5 |
| 20260505065304 | 51 | 274 | 0.0 | 0.9 | 0.00 | 0.00 | 0.00 | 75 | 1013.5 |
| 20260505064804 | 51 | 249 | 0.9 | 1.7 | 0.00 | 0.00 | 0.00 | 75 | 1013.2 |
| 20260505064304 | 50 | 224 | 1.7 | 4.3 | 0.00 | 0.00 | 0.00 | 77 | 1013.2 |
| 20260505063806 | 50 | 241 | 1.7 | 4.3 | 0.00 | 0.00 | 0.00 | 77 | 1013.1 |
| 20260505062805 | 50 | 234 | 1.7 | 4.3 | 0.00 | 0.00 | 0.00 | 79 | 1013.3 |
| 20260505062305 | 50 | 257 | 0.9 | 1.7 | 0.00 | 0.00 | 0.00 | 78 | 1012.9 |
| 20260505061804 | 49 | 237 | 0.0 | 1.7 | 0.00 | 0.00 | 0.00 | 79 | 1013.0 |
| 20260505061304 | 49 | 229 | 0.9 | 1.7 | 0.00 | 0.00 | 0.00 | 79 | 1012.9 |
| 20260505060804 | 49 | 215 | 1.7 | 2.6 | 0.00 | 0.00 | 0.00 | 79 | 1012.7 |
| 20260505060305 | 49 | 228 | 1.7 | 1.7 | 0.00 | 0.00 | 0.00 | 76 | 1012.9 |
| 20260505055804 | 49 | 292 | 0.0 | 0.9 | 0.00 | 0.00 | 0.00 | 77 | 1012.9 |
| 20260505055304 | 49 | 230 | 0.9 | 2.6 | 0.00 | 0.00 | 0.00 | 78 | 1012.9 |
| 20260505054304 | 49 | 234 | 0.0 | 0.0 | 0.00 | 0.00 | 0.00 | 75 | 1012.8 |
| 20260505053805 | 49 | 173 | 0.0 | 0.0 | 0.00 | 0.00 | 0.00 | 74 | 1012.7 |
| 20260505053304 | 49 | 187 | 0.0 | 0.9 | 0.00 | 0.00 | 0.00 | 75 | 1012.9 |
| 20260505052805 | 49 | 176 | 0.0 | 0.9 | 0.00 | 0.00 | 0.00 | 76 | 1012.6 |
| 20260505052304 | 49 | 197 | 0.9 | 0.9 | 0.00 | 0.00 | 0.00 | 76 | 1012.7 |
| 20260505051804 | 49 | 195 | 0.0 | 0.9 | 0.00 | 0.00 | 0.00 | 77 | 1012.8 |
| 20260505051304 | 49 | 191 | 0.0 | 1.7 | 0.00 | 0.00 | 0.00 | 76 | 1012.5 |
| 20260505050804 | 49 | 197 | 0.0 | 0.9 | 0.00 | 0.00 | 0.00 | 76 | 1012.6 |
| 20260505050304 | 48 | 216 | 0.0 | 0.9 | 0.00 | 0.00 | 0.00 | 77 | 1012.6 |
| 20260505040804 | 49 | 194 | 0.9 | 1.7 | 0.00 | 0.00 | 0.00 | 75 | 1012.7 |
| 20260505040304 | 49 | 193 | 0.0 | 0.9 | 0.00 | 0.00 | 0.00 | 75 | 1012.6 |
| 20260505035804 | 49 | 148 | 0.9 | 1.7 | 0.00 | 0.00 | 0.00 | 74 | 1012.5 |
| 20260505035304 | 49 | 197 | 0.0 | 0.0 | 0.00 | 0.00 | 0.00 | 72 | 1012.7 |
| 20260505034804 | 49 | 206 | 0.0 | 0.0 | 0.00 | 0.00 | 0.00 | 71 | 1012.8 |
| 20260505034304 | 49 | 128 | 0.0 | 0.0 | 0.00 | 0.00 | 0.00 | 72 | 1012.6 |
| 20260505033804 | 49 | 116 | 0.0 | 0.0 | 0.00 | 0.00 | 0.00 | 73 | 1012.5 |
| 20260505032804 | 49 | 130 | 0.0 | 0.0 | 0.00 | 0.00 | 0.00 | 71 | 1012.6 |
| 20260505032305 | 49 | 223 | 0.0 | 0.0 | 0.00 | 0.00 | 0.00 | 72 | 1012.7 |
| 20260505031804 | 49 | 135 | 0.0 | 0.0 | 0.00 | 0.00 | 0.00 | 72 | 1012.7 |
| 20260505031304 | 49 | 214 | 0.0 | 0.0 | 0.00 | 0.00 | 0.00 | 71 | 1012.6 |
| 20260505030804 | 49 | 221 | 0.0 | 0.0 | 0.00 | 0.00 | 0.00 | 70 | 1012.6 |
| 20260505030304 | 49 | 157 | 0.0 | 0.0 | 0.00 | 0.00 | 0.00 | 72 | 1012.6 |
| 20260505025804 | 49 | 153 | 0.0 | 0.0 | 0.00 | 0.00 | 0.00 | 73 | 1012.7 |
| 20260505025305 | 49 | 203 | 0.0 | 0.0 | 0.00 | 0.00 | 0.00 | 73 | 1012.8 |
| 20260505024805 | 49 | 217 | 0.0 | 0.0 | 0.00 | 0.00 | 0.00 | 72 | 1012.6 |
| 20260505024304 | 48 | 216 | 0.0 | 0.0 | 0.00 | 0.00 | 0.00 | 74 | 1012.9 |
| 20260505023804 | 49 | 228 | 0.0 | 0.0 | 0.00 | 0.00 | 0.00 | 74 | 1012.7 |
| 20260505023304 | 49 | 211 | 0.9 | 0.9 | 0.00 | 0.00 | 0.00 | 73 | 1012.6 |
| 20260505022805 | 49 | 209 | 0.0 | 0.9 | 0.00 | 0.00 | 0.00 | 73 | 1012.7 |
| 20260505022304 | 48 | 172 | 0.0 | 0.9 | 0.00 | 0.00 | 0.00 | 73 | 1012.9 |
| 20260505021804 | 48 | 199 | 0.9 | 1.7 | 0.00 | 0.00 | 0.00 | 73 | 1013.0 |
| 20260505021305 | 49 | 189 | 0.9 | 1.7 | 0.00 | 0.00 | 0.00 | 72 | 1012.7 |
| 20260505020804 | 49 | 197 | 0.9 | 1.7 | 0.00 | 0.00 | 0.00 | 70 | 1012.8 |
| 20260505020304 | 49 | 197 | 0.0 | 0.9 | 0.00 | 0.00 | 0.00 | 70 | 1012.8 |
| 20260505015804 | 49 | 189 | 0.0 | 0.9 | 0.00 | 0.00 | 0.00 | 69 | 1012.9 |
| 20260505015305 | 49 | 146 | 0.9 | 1.7 | 0.00 | 0.00 | 0.00 | 69 | 1012.8 |
| 20260505014804 | 49 | 141 | 0.0 | 0.0 | 0.00 | 0.00 | 0.00 | 69 | 1013.0 |
| 20260505014304 | 49 | 149 | 0.0 | 0.9 | 0.00 | 0.00 | 0.00 | 69 | 1012.9 |
| 20260505013804 | 49 | 176 | 0.0 | 0.9 | 0.00 | 0.00 | 0.00 | 68 | 1012.9 |
| 20260505013304 | 49 | 151 | 0.0 | 0.9 | 0.00 | 0.00 | 0.00 | 67 | 1013.1 |
| 20260505012305 | 49 | 149 | 0.0 | 0.0 | 0.00 | 0.00 | 0.00 | 67 | 1013.0 |
| 20260505011804 | 49 | 182 | 0.9 | 0.9 | 0.00 | 0.00 | 0.00 | 68 | 1013.2 |
| 20260505011305 | 49 | 157 | 0.9 | 1.7 | 0.00 | 0.00 | 0.00 | 69 | 1013.3 |
| 20260505010805 | 49 | 155 | 0.9 | 1.7 | 0.00 | 0.00 | 0.00 | 68 | 1013.3 |
| 20260505010304 | 49 | 159 | 1.7 | 1.7 | 0.00 | 0.00 | 0.00 | 67 | 1013.2 |
| 20260505005804 | 49 | 141 | 1.7 | 1.7 | 0.00 | 0.00 | 0.00 | 66 | 1013.3 |
| 20260505005305 | 49 | 144 | 0.9 | 1.7 | 0.00 | 0.00 | 0.00 | 66 | 1013.2 |
| 20260505004304 | 49 | 139 | 1.7 | 1.7 | 0.00 | 0.00 | 0.00 | 65 | 1013.2 |
| 20260505003804 | 50 | 151 | 0.9 | 1.7 | 0.00 | 0.00 | 0.00 | 64 | 1013.1 |